Regional Weather Roundup
Issued by NWS

Home | Current Version | Previous Version | Graphics & Text | Print | Product List | Glossary On
Versions: 1 2 3 4 5 6 7 8 9 10 11 12 13 14 15 16 17 18 19 20 21 22 23 24 25 26 27 28 29 30 31 32 33 34 35 36 37 38 39 40 41 42 43 44 45 46 47 48 49 50
628
ASUS45 KBOU 262307
RWRCO

WEATHER ROUNDUP FOR COLORADO
NATIONAL WEATHER SERVICE DENVER/BOULDER CO
500 PM MDT SUN MAR 26 2017

NOTE: "FAIR" INDICATES FEW OR NO CLOUDS BELOW 12000 FEET WITH NO
SIGNIFICANT WEATHER AND/OR OBSTRUCTIONS TO VISIBILITY.

COZ001>005-013-030-031-270000-
...NORTHWEST COLORADO...

CITY           SKY/WX    TMP DP  RH WIND       PRES   REMARKS
CRAIG          PTSUNNY   53  21  28 SW9       29.96F
HAYDEN         FAIR      46  25  42 CALM      29.97F
MEEKER         FAIR      52  23  32 VRB5      29.96S
MOUNT WERNER   NOT AVBL
STEAMBOAT SPGS FAIR      44  29  55 CALM      29.97F
WALDEN         NOT AVBL
$$

COZ006>008-011-270000-
...WEST CENTRAL VALLEYS...

CITY           SKY/WX    TMP DP  RH WIND       PRES   REMARKS
GRAND JUNCTION FAIR      60  26  27 NW7       29.92S
MONTROSE       FAIR      54  32  43 S12       29.98R
EAGLE          MOSUNNY   54  21  28 W10G20    29.94F
RIFLE          FAIR      58  23  26 W8        29.94S
DELTA          FAIR      62  24  23 W12       29.93S
NUCLA          FAIR      55  27  33 CALM      30.00S
$$

COZ017>023-064>068-270000-
...SOUTHWEST COLORADO...

CITY           SKY/WX    TMP DP  RH WIND       PRES   REMARKS
DURANGO        FAIR      56  22  26 W15       29.94R
CORTEZ         FAIR      58  33  39 W13G18    29.97R
PAGOSA SPRINGS FAIR      47  33  58 NE3       29.99S
TELLURIDE      FAIR      42  24  49 W8        30.06S
WOLF CREEK PAS FOG       27  27 100 SW14G20   30.12S VSB 1/2 WCI  15
$$

COZ009-010-012-014-032>034-037-058>063-270000-
...CENTRAL COLORADO...

CITY           SKY/WX    TMP DP  RH WIND       PRES   REMARKS
ASPEN          PTSUNNY   46  24  42 N9        29.95S
BUENA VISTA    CLOUDY    55  14  19 W17G25    29.90S
COPPER MTN     CLOUDY    32  25  74 MISG      30.05S
BERTHOUD PASS  CLOUDY    21  10  63 NW17G28   30.05S WCI   7
COTTONWOOD PAS FAIR      46  16  29 W3G20     29.97F
GUNNISON       PTSUNNY   48  27  44 W10G22    29.98
KREMMLING      CLOUDY    54  25  32 NW10G16   29.96S
LEADVILLE      FAIR      38  17  42 W12       29.98S
MONARCH PASS   CLOUDY    30  23  74 SW16G29   30.15F WCI  19
SALIDA         PTSUNNY   56  22  26 W23       29.97S
SUNLIGHT       FAIR      30  23  74 W8G18     30.09S WCI  23
WILKERSON PASS PTSUNNY   32  27  80 CALM      30.05R HAZE
$$

COZ069>075-270000-
...SAN LUIS VALLEY/SANGRE DE CRISTO MOUNTAINS...

CITY           SKY/WX    TMP DP  RH WIND       PRES   REMARKS
ALAMOSA        CLOUDY    54  23  30 NW3       29.90R
LA VETA PASS   NOT AVBL
SAGUACHE       FAIR      54  19  26 NW16G24   29.92S
$$

COZ035-036-038>040-270000-
...NORTHERN COLORADO FRONT RANGE...

CITY           SKY/WX    TMP DP  RH WIND       PRES   REMARKS
DENVER INTL AP PTSUNNY   51  33  50 N12       29.92S
DMNS CITY PARK   N/A     49  35  58 N6        29.93S
AURORA         PTSUNNY   49  34  55 N6        29.93S
FRONT RANGE AP PTSUNNY   50  36  57 NE7       29.93S
ERIE MUNI ARPT LGT RAIN  49  42  76 NW5       29.93F
BOULDER MUN AP DRIZZLE   46  41  81 NW3       29.94S
CENTENNIAL     PTSUNNY   48  35  60 N13       29.93R
BROOMFIELD     PTSUNNY   46  41  81 NW9       29.95R
FORT COLLINS   PTSUNNY   49  42  77 E7        29.94R
LONGMONT       LGT RAIN  49  43  80 W5        29.96S
$$

COZ041-046-047-076>085-087-088-270000-
...PIKES PEAK/PALMER DIVIDE AND SOUTHERN FOOTHILLS...

CITY           SKY/WX    TMP DP  RH WIND       PRES   REMARKS
COLO. SPRINGS  FAIR      53  31  42 N21       29.91R
A. F. ACADEMY  FAIR      50  32  49 N17G25    29.90S
SCHRIEVER AFB  FAIR      50  32  48 N17G28    29.92R
ELLICOTT         N/A    N/A N/A N/A NE20G26   29.90R
FALCON         FAIR      48  31  52 N14G20    29.94R
FORT CARSON    LGT RAIN  52  32  46 NW10      29.90R
LIMON          PTSUNNY   51  35  54 N8        29.92R
MONUMENT HILL  PTSUNNY   41  32  70 N10G16    29.95S
TRINIDAD       FAIR      52  40  63 NE18G25   29.90S
$$

COZ042>045-048>051-090-091-270000-
...NORTHEAST COLORADO...

CITY           SKY/WX    TMP DP  RH WIND       PRES   REMARKS
GREELEY ARPT   CLOUDY    51  35  54 NE8       29.93R
AKRON          PTSUNNY   50  36  58 NW9       29.90S
BURLINGTON     CLOUDY    49  40  71 NE8       29.90S
WRAY           CLOUDY    54  37  54 N6        29.89S
STERLING       CLOUDY    54  36  50 N8        29.88S
HOLYOKE        FAIR      59  37  44 NW8       29.89R
FORT MORGAN    FAIR      52  33  47 N8        29.91F
$$

COZ086-089-092>099-270000-
...SOUTHEAST COLORADO...

CITY           SKY/WX    TMP DP  RH WIND       PRES   REMARKS
PUEBLO         PTSUNNY   58  34  40 E13       29.88R
LA JUNTA       CLOUDY    52  39  61 NE12      29.90R
LAMAR          CLOUDY    47  38  71 N8        29.88S
SPRINGFIELD      N/A     47  35  63 N17G26    29.87R
$$




USA.gov is the U.S. government's official web portal to all federal, state and local government web resources and services.